Regional Weather Roundup
Issued by NWS

Home | Current Version | Previous Version | Graphics & Text | Print | Product List | Glossary On
Versions: 1 2 3 4 5 6 7 8 9 10 11 12 13 14 15 16 17 18 19 20 21 22 23 24 25 26 27 28 29 30 31 32 33 34 35 36 37 38 39 40 41 42 43 44 45 46 47 48 49 50
000
ASUS43 KDTX 311710
RWRMI
MICHIGAN HOURLY REGIONAL WEATHER ROUNDUP
NATIONAL WEATHER SERVICE DETROIT/PONTIAC MI
100 PM EDT WED AUG 31 2016

NOTE: "FAIR" INDICATES FEW OR NO CLOUDS BELOW 12,000 FEET WITH NO
SIGNIFICANT WEATHER AND/OR OBSTRUCTION TO VISIBILITY.

MIZ047>049-052>055-059>063-066>070-074>076-081>083-311800-
SOUTHEAST LOWER MICHIGAN

CITY           SKY/WX    TMP DP  RH WIND       PRES   REMARKS
ADRIAN         CLOUDY    74  69  85 NW5       30.01S
ALMA           SUNNY     74  61  64 N9        30.05S
ANN ARBOR      PTSUNNY   79  70  74 NW13      29.99S
BAD AXE        PTSUNNY   70  61  72 N14       30.03F
CARO           PTSUNNY   71  63  75 N9G16     30.02F
DETROIT CITY   PTSUNNY   79  70  74 N7        29.98F
DETROIT        PTSUNNY   78  69  73 NE3       29.98F
FLINT          CLOUDY    73  58  59 N6        30.02F
GROSSE ILE     CLOUDY    78  69  75 NE6       29.97S
HILLSDALE      CLOUDY    76  68  75 N3        30.02R
HOWELL         CLOUDY    74  64  70 N6        30.02F

CITY           SKY/WX    TMP DP  RH WIND       PRES   REMARKS
JACKSON        CLOUDY    75  68  78 N5        30.02S
LAMBERTVILLE   PTSUNNY   79  71  75 NW9       30.00S
LANSING        CLOUDY    72  58  61 NE6       30.04S
LAPEER         CLOUDY    73  62  68 NW9       30.02S
MASON          CLOUDY    73  63  71 N5        30.03S
MONROE         PTSUNNY   79  72  80 N3        29.98F
MT. CLEMENS    PTSUNNY   77  67  71 N10       29.97S
PONTIAC        CLOUDY    75  64  68 N9        30.00F
PORT HOPE        N/A     72  62  71 N8        30.01F
PORT HURON     CLOUDY    72  63  73 N5        30.00S
TRI CITIES     PTSUNNY   74  60  61 N9        30.04F
MIDLAND        FAIR      74  58  56 N8        30.03S
TROY           CLOUDY    77  65  67 N9        30.01S
SAGINAW HB     MOSUNNY   72  61  68 N6        30.03S
$$
MIZ043>046-050>051-056>058-064>065-071>073-077>080-311800-
SOUTHWEST LOWER MICHIGAN

CITY           SKY/WX    TMP DP  RH WIND       PRES   REMARKS
BATTLE CREEK   CLOUDY    73  69  87 N9        30.04S
BENTON HARBOR  CLOUDY    76  67  73 N8G17     30.03S
BIG RAPIDS     MOSUNNY   73  54  50 NE8       30.06S
COLDWATER      PTSUNNY   79  69  71 NE3       30.01F
FREMONT        FAIR      73  49  42 N12       30.06F
HOLLAND        MOSUNNY   76  59  55 VRB5      30.05S
GRAND RAPIDS   PTSUNNY   73  57  57 VRB3      30.05F
IONIA          CLOUDY    71  56  59 N5        30.04S
KALAMAZOO      PTSUNNY   78  68  71 N6        30.02S
LUDINGTON      MOSUNNY   72  58  62 N10G20    30.08S
MARSHALL       PTSUNNY   73  69  88 N5        30.03S
MOUNT PLEASANT SUNNY     75  58  54 N8        30.04S
MUSKEGON       MOSUNNY   77  55  46 N13       30.06F
SOUTH HAVEN    MOSUNNY   77  69  74 N9G17     30.03S
$$
MIZ016>042-311800-
NORTHERN LOWER MICHIGAN

CITY           SKY/WX    TMP DP  RH WIND       PRES   REMARKS
ALPENA         MOSUNNY   74  51  44 NW10      30.05F
BEAVER ISLAND  PTSUNNY   72  58  61 NW9       30.10R
BELLAIRE       MOSUNNY   73  52  47 N7        30.08S
CADILLAC       MOSUNNY   72  53  51 N10       30.08S
CHARLEVOIX     SUNNY     70  57  63 N7        30.12S
FRANKFORT      MOSUNNY   72  57  60 N6G16     30.10S
GAYLORD        PTSUNNY   72  50  45 N8        30.08F
GRAYLING       SUNNY     74  51  44 NW12G20   30.08F
HARBOR SPRINGS MOSUNNY   74  53  48 N10       30.07S
HOUGHTON LAKE  PTSUNNY   71  52  50 N12       30.07F
MANISTEE       PTSUNNY   73  55  53 N9        30.08S
OSCODA         MOSUNNY   74  55  51 N10       30.03S
PELLSTON       MOSUNNY   74  53  48 NW16      30.07F
ROGERS CITY    SUNNY     70  54  57 N7        30.07S
TRAVERSE CITY  MOSUNNY   73  52  47 N12G18    30.07F
$$
MIZ007>008-015-311800-
EASTERN UPPER MICHIGAN

CITY           SKY/WX    TMP DP  RH WIND       PRES   REMARKS
KINROSS        PTSUNNY   70  55  60 N15G21    30.06F
MACKINAC ISLAN CLOUDY    69  56  63 N6        30.07S
NEWBERRY       CLOUDY    69  56  64 N10       30.09S
S. S. MARIE    MOSUNNY   71  56  58 NW12      30.05F
MUNISING         N/A     69  59  70 N12       30.12S
$$
MIZ004>006-011>014-085-311800-
CENTRAL UPPER MICHIGAN

CITY           SKY/WX    TMP DP  RH WIND       PRES   REMARKS
MANISTIQUE     CLOUDY    69  56  62 NW10G16   30.10S
ESCANABA       CLOUDY    70  56  61 NW7       30.11S
MENOMINEE      SUNNY    N/A N/A N/A MISG        N/A
SAWYER-GWINN   CLOUDY    66  55  68 N12       30.15R
$$
MIZ001>003-009>011-084-311800-
WESTERN UPPER MICHIGAN

CITY           SKY/WX    TMP DP  RH WIND       PRES   REMARKS
IRON MOUNTAIN  CLOUDY    71  50  47 NW13      30.14S
HOUGHTON       CLOUDY    68  55  63 N9        30.16S
COPPER HARBOR    N/A     66  59  78 NE9       30.14S
IRONWOOD       CLOUDY    66  56  70 NW8       30.21S
$$

ABBREVIATIONS USED IN REMARKS
   TC - TEMPERATURE IN CELSIUS
  WCI - WIND CHILL INDEX
   HX - HEAT INDEX
  VSB - VISIBILITY





USA.gov is the U.S. government's official web portal to all federal, state and local government web resources and services.